Starlink 36204

operational
NORAD ID: 68550 Int'l Des: 2026-070 Owner: SPXS Country: US Constellation: starlink
LEOCIRCULAR

关于 Starlink 36204

正在加载描述...

实时位置

正在加载3D地球...

即将过境

高度历史

Altitude vs Time

uPlot chart will show altitude changes over time

两行轨道根数

1 68550C 26070H 26093.92409722 -.00233020 00000+0 -28649-3 0 932
2 68550 53.1618 259.4727 0007821 287.8051 65.2197 16.07244618 15
Epoch: Apr 3, 2026 • Age: 30 hours

当前状态

高度 258.3 km
速度 7.75 km/s
星下点 14.94°N, 138.58°E
发射日期 Apr 2, 2026
运行时间 1 days
类型 internet

技术详情

分类 Payload
质量 575.00 kg
干质量 530.00 kg
总质量 575.00 kg
长度 0.30 m
直径 4.10 m
跨度 29.00 m
形状 Box + pan
制造商 SPXS
平台类型 Starlink V2MO
阶段状态 In Orbit
所有者/国家 SPXS/US

大型星座

Loading constellations...